User: anonymous   Login
Location: Unspecified
(0.0000°N, 0.0000°E)
Time: 10:01:21
(UTC+00:00)
Language:

ONEWEB-0206 - Orbit

View from above orbital plane
View from above orbital plane
View from above satellite
View from above satellite

Ground track
Ground track

The orbit is defined by the following mean orbital elements,

1 48227U          26145.42770308 +.00000000 +00000-0 -16419-3 0 00000
2 48227  87.8948 294.2361 0001871  92.3610 267.7734 13.14502051    02
Epoch (UTC): 25 May 2026 10:15:53
Eccentricity: 0.0001871
inclination: 87.8948°
perigee height: 1204 km
apogee height: 1207 km
right ascension of ascending node: 294.2361°
argument of perigee: 92.3610°
revolutions per day: 13.14502051
mean anomaly at epoch: 267.7734°

The dashed part of the orbit path shows where the satellite is in the earth's shadow,  

DLR